This is the latest recevied weather packets stored in our database for station/object WB9TLH-11. If no packets are shown the sender has not sent any weather packets the latest 10 day(s).
| Time | Temp. | Humidity | Pressure | Rain* | Wind** | Luminosity | Snow |
|---|---|---|---|---|---|---|---|
| 1777486567 | 16.67° C | 64% | 1012.6 hPa | 0 mm | - | - | - |
| 1777486267 | 16.67° C | 68% | 1012.6 hPa | 0 mm | - | - | - |
| 1777485967 | 16.67° C | 68% | 1012.6 hPa | 0 mm | - | - | - |
| 1777485667 | 16.11° C | 68% | 1012.5 hPa | 0 mm | - | - | - |
| 1777485367 | 16.11° C | 68% | 1012.6 hPa | 0 mm | - | - | - |
| 1777485067 | 16.67° C | 66% | 1012.6 hPa | 0 mm | - | - | - |
| 1777484767 | 17.22° C | 65% | 1012.6 hPa | 0 mm | - | - | - |
| 1777484467 | 16.67° C | 69% | 1012.5 hPa | 0 mm | - | - | - |
| 1777484167 | 16.11° C | 70% | 1012.7 hPa | 0 mm | - | - | - |
| 1777483868 | 16.11° C | 69% | 1012.7 hPa | 0 mm | - | - | - |
| 1777483567 | 16.11° C | 70% | 1012.7 hPa | 0 mm | - | - | - |
| 1777483267 | 16.11° C | 71% | 1012.6 hPa | 0 mm | - | - | - |
| 1777482967 | 16.11° C | 70% | 1012.7 hPa | 0 mm | - | - | - |
| 1777482667 | 16.11° C | 69% | 1012.7 hPa | 0 mm | - | - | - |
| 1777482367 | 16.67° C | 66% | 1012.6 hPa | 0 mm | - | - | - |
| 1777482067 | 16.67° C | 71% | 1012.6 hPa | 0 mm | - | - | - |
| 1777481768 | 16.11° C | 71% | 1012.5 hPa | 0 mm | - | - | - |
| 1777481468 | 16.11° C | 71% | 1012.5 hPa | 0 mm | - | - | - |
| 1777481168 | 15.56° C | 74% | 1012.6 hPa | 0 mm | - | - | - |
| 1777480868 | 15.56° C | 72% | 1012.6 hPa | 0 mm | - | - | - |
| 1777480567 | 15.56° C | 73% | 1012.6 hPa | 0 mm | - | - | - |
| 1777480267 | 15.56° C | 76% | 1012.6 hPa | 0 mm | - | - | - |
| 1777479968 | 15° C | 75% | 1012.6 hPa | 0 mm | - | - | - |
| 1777479667 | 15° C | 76% | 1012.5 hPa | 0 mm | - | - | - |
| 1777479368 | 15° C | 78% | 1012.5 hPa | 0 mm | - | - | - |
* Rain latest hour (hover to see other rain measurements)
** Current wind speed in m/s (hover to see current wind gust speed)